C6006 KPIE-KPIE

Flight info

Callsign C6006
Flight time 0h 34m
Altitude 8000
Route VFR
Aircraft H60/L-V/N

Departure

Time 2026-04-21 18:13
Airport St. Petersburg Clearwater International Airport (KPIE)

Arrival

Time 2026-04-21 18:47
Airport St. Petersburg Clearwater International Airport (KPIE)
Time Latitude Longitude Altitude Speed Heading
2026-04-21 17:57 27.91442 -82.69279 18 ft 0 kts 111°
2026-04-21 17:58 27.91442 -82.69278 19 ft 1 kts 78°
2026-04-21 17:58 27.91446 -82.69274 18 ft 0 kts 45°
2026-04-21 17:59 27.91446 -82.69273 18 ft 0 kts 32°
2026-04-21 18:00 27.91450 -82.69278 56 ft 3 kts 30°
2026-04-21 18:00 27.91552 -82.69541 118 ft 106 kts 283°
2026-04-21 18:01 27.91736 -82.70526 477 ft 143 kts 288°
2026-04-21 18:01 27.92029 -82.71607 478 ft 142 kts 289°
2026-04-21 18:01 27.92303 -82.72635 485 ft 128 kts 289°
2026-04-21 18:01 27.92525 -82.73553 495 ft 116 kts 289°
2026-04-21 18:02 27.92743 -82.74406 504 ft 111 kts 289°
2026-04-21 18:02 27.92978 -82.75228 504 ft 110 kts 289°
2026-04-21 18:02 27.93216 -82.76042 502 ft 109 kts 289°
2026-04-21 18:02 27.93456 -82.76840 503 ft 106 kts 289°
2026-04-21 18:03 27.93693 -82.77626 504 ft 106 kts 289°
2026-04-21 18:03 27.93919 -82.78420 501 ft 106 kts 289°
2026-04-21 18:03 27.94133 -82.79208 501 ft 103 kts 289°
2026-04-21 18:03 27.94339 -82.79978 503 ft 102 kts 289°
2026-04-21 18:04 27.94549 -82.80745 502 ft 103 kts 289°
2026-04-21 18:04 27.94750 -82.81526 519 ft 106 kts 289°
2026-04-21 18:04 27.95088 -82.82696 199 ft 194 kts 289°
2026-04-21 18:04 27.95460 -82.83895 74 ft 146 kts 289°
2026-04-21 18:05 27.95772 -82.84949 115 ft 141 kts 289°
2026-04-21 18:05 27.96077 -82.85991 132 ft 139 kts 289°
2026-04-21 18:05 27.96385 -82.87017 135 ft 138 kts 289°
2026-04-21 18:05 27.96688 -82.88043 137 ft 137 kts 289°
2026-04-21 18:06 27.96983 -82.89052 138 ft 137 kts 289°
2026-04-21 18:06 27.97246 -82.90101 149 ft 137 kts 264°
2026-04-21 18:06 27.96791 -82.90830 144 ft 126 kts 202°
2026-04-21 18:06 27.95939 -82.91342 137 ft 139 kts 203°
2026-04-21 18:07 27.95086 -82.91859 134 ft 139 kts 203°
2026-04-21 18:07 27.94236 -82.92385 134 ft 140 kts 203°
2026-04-21 18:07 27.93377 -82.92903 134 ft 140 kts 203°
2026-04-21 18:07 27.92531 -82.93440 137 ft 140 kts 203°
2026-04-21 18:08 27.91665 -82.93963 138 ft 141 kts 203°
2026-04-21 18:08 27.90803 -82.94495 150 ft 140 kts 203°
2026-04-21 18:08 27.89939 -82.95018 149 ft 141 kts 203°
2026-04-21 18:08 27.89074 -82.95545 147 ft 141 kts 203°
2026-04-21 18:09 27.88203 -82.96049 143 ft 140 kts 203°
2026-04-21 18:09 27.87337 -82.96549 146 ft 140 kts 203°
2026-04-21 18:09 27.86520 -82.97059 180 ft 119 kts 203°
2026-04-21 18:09 27.86076 -82.97660 178 ft 83 kts 292°
2026-04-21 18:10 27.86423 -82.97832 144 ft 60 kts 27°
2026-04-21 18:10 27.87055 -82.97516 124 ft 136 kts 26°
2026-04-21 18:10 27.87952 -82.97232 130 ft 133 kts 21°
2026-04-21 18:10 27.88844 -82.96962 138 ft 132 kts 23°
2026-04-21 18:11 27.89725 -82.96674 138 ft 132 kts 22°
2026-04-21 18:11 27.90579 -82.96365 165 ft 121 kts 23°
2026-04-21 18:11 27.91355 -82.96117 157 ft 112 kts 23°
2026-04-21 18:11 27.92144 -82.96016 170 ft 122 kts 329°
2026-04-21 18:12 27.92280 -82.96916 156 ft 134 kts 233°
2026-04-21 18:12 27.91444 -82.97597 65 ft 162 kts 206°
2026-04-21 18:12 27.90469 -82.98254 178 ft 161 kts 206°
2026-04-21 18:12 27.89556 -82.98851 283 ft 145 kts 206°
2026-04-21 18:13 27.88712 -82.99377 793 ft 138 kts 205°
2026-04-21 18:13 27.87863 -82.99668 1062 ft 123 kts 147°
2026-04-21 18:13 27.87496 -82.98898 654 ft 127 kts 67°
2026-04-21 18:13 27.88205 -82.98211 423 ft 150 kts 31°
2026-04-21 18:14 27.89995 -82.97218 649 ft 143 kts 23°
2026-04-21 18:14 27.90905 -82.96694 924 ft 151 kts 28°
2026-04-21 18:14 27.91855 -82.96092 1053 ft 162 kts 27°
2026-04-21 18:15 27.92819 -82.95432 1126 ft 161 kts 30°
2026-04-21 18:15 27.93858 -82.95060 1427 ft 154 kts 353°
2026-04-21 18:15 27.94765 -82.95514 1826 ft 140 kts 293°
2026-04-21 18:15 27.94973 -82.96530 2174 ft 155 kts 245°
2026-04-21 18:16 27.94332 -82.97711 1789 ft 199 kts 212°
2026-04-21 18:16 27.93146 -82.98595 772 ft 199 kts 203°
2026-04-21 18:16 27.91921 -82.99276 181 ft 189 kts 201°
2026-04-21 18:16 27.90781 -82.99814 401 ft 168 kts 200°
2026-04-21 18:17 27.89750 -83.00279 792 ft 154 kts 204°
2026-04-21 18:17 27.88853 -83.00316 1057 ft 108 kts 129°
2026-04-21 18:17 27.88606 -82.99639 1132 ft 110 kts 88°
2026-04-21 18:17 27.88563 -82.98639 757 ft 133 kts 105°
2026-04-21 18:18 27.87992 -82.97889 937 ft 128 kts 148°
2026-04-21 18:18 27.87101 -82.97761 1187 ft 136 kts 185°
2026-04-21 18:18 27.86257 -82.98233 1567 ft 138 kts 223°
2026-04-21 18:18 27.85797 -82.99168 1962 ft 135 kts 262°
2026-04-21 18:19 27.85824 -83.00219 2084 ft 134 kts 302°
2026-04-21 18:19 27.86324 -83.01058 2173 ft 125 kts 337°
2026-04-21 18:19 27.87091 -83.01301 2221 ft 111 kts 29°
2026-04-21 18:19 27.87886 -83.01034 2020 ft 130 kts 25°
2026-04-21 18:20 27.88800 -83.00707 1410 ft 142 kts 37°
2026-04-21 18:20 27.89335 -82.99898 775 ft 128 kts 88°
2026-04-21 18:20 27.88986 -82.99000 586 ft 134 kts 142°
2026-04-21 18:20 27.88092 -82.98838 664 ft 138 kts 196°
2026-04-21 18:21 27.87421 -82.99605 825 ft 145 kts 253°
2026-04-21 18:21 27.87546 -83.00667 987 ft 138 kts 314°
2026-04-21 18:21 27.88299 -83.01113 1154 ft 116 kts 18°
2026-04-21 18:21 27.88856 -83.00624 1352 ft 104 kts 79°
2026-04-21 18:22 27.88701 -82.99806 1398 ft 117 kts 126°
2026-04-21 18:22 27.87988 -82.99300 1279 ft 136 kts 166°
2026-04-21 18:22 27.87016 -82.99471 1101 ft 152 kts 212°
2026-04-21 18:22 27.86422 -83.00436 1004 ft 156 kts 269°
2026-04-21 18:23 27.86680 -83.01551 1002 ft 143 kts 328°
2026-04-21 18:23 27.87444 -83.01906 1264 ft 103 kts 36°
2026-04-21 18:23 27.87757 -83.01482 1836 ft 71 kts 115°
2026-04-21 18:23 27.87348 -83.00958 1800 ft 119 kts 147°
2026-04-21 18:24 27.86442 -83.00488 690 ft 156 kts 157°
2026-04-21 18:24 27.85461 -82.99892 145 ft 156 kts 139°
2026-04-21 18:24 27.85061 -82.98965 316 ft 118 kts 86°
2026-04-21 18:24 27.85451 -82.98242 442 ft 113 kts 34°
2026-04-21 18:25 27.86249 -82.97906 364 ft 134 kts 21°
2026-04-21 18:25 27.87116 -82.97498 420 ft 133 kts 25°
2026-04-21 18:25 27.87954 -82.97050 428 ft 133 kts 26°
2026-04-21 18:25 27.88776 -82.96552 420 ft 135 kts 33°
2026-04-21 18:26 27.89588 -82.96023 426 ft 134 kts 33°
2026-04-21 18:26 27.90415 -82.95537 424 ft 134 kts 33°
2026-04-21 18:26 27.91242 -82.95070 422 ft 132 kts 33°
2026-04-21 18:26 27.92064 -82.94609 438 ft 132 kts 33°
2026-04-21 18:27 27.92829 -82.94059 414 ft 128 kts 55°
2026-04-21 18:27 27.93028 -82.93112 422 ft 131 kts 99°
2026-04-21 18:27 27.92876 -82.92111 439 ft 129 kts 99°
2026-04-21 18:27 27.92731 -82.91114 429 ft 127 kts 99°
2026-04-21 18:28 27.92576 -82.90150 433 ft 124 kts 99°
2026-04-21 18:28 27.92435 -82.89192 432 ft 123 kts 99°
2026-04-21 18:28 27.92286 -82.88243 431 ft 123 kts 99°
2026-04-21 18:28 27.92127 -82.87198 324 ft 143 kts 99°
2026-04-21 18:29 27.91625 -82.86257 337 ft 153 kts 142°
2026-04-21 18:29 27.90555 -82.86154 378 ft 153 kts 179°
2026-04-21 18:29 27.89535 -82.86243 796 ft 143 kts 179°
2026-04-21 18:29 27.88580 -82.86295 857 ft 139 kts 179°
2026-04-21 18:30 27.87577 -82.86227 786 ft 145 kts 164°
2026-04-21 18:30 27.86618 -82.86019 835 ft 139 kts 163°
2026-04-21 18:30 27.85663 -82.85772 812 ft 139 kts 159°
2026-04-21 18:30 27.84779 -82.85405 804 ft 134 kts 153°
2026-04-21 18:31 27.83921 -82.84978 795 ft 138 kts 153°
2026-04-21 18:31 27.83032 -82.84585 795 ft 137 kts 153°
2026-04-21 18:31 27.82190 -82.84138 804 ft 128 kts 142°
2026-04-21 18:31 27.81535 -82.83485 790 ft 127 kts 130°
2026-04-21 18:32 27.80882 -82.82773 791 ft 130 kts 130°
2026-04-21 18:32 27.80238 -82.82082 793 ft 129 kts 130°
2026-04-21 18:32 27.79589 -82.81371 794 ft 131 kts 130°
2026-04-21 18:32 27.78926 -82.80661 793 ft 131 kts 130°
2026-04-21 18:33 27.78261 -82.79956 786 ft 131 kts 130°
2026-04-21 18:33 27.77605 -82.79261 788 ft 129 kts 130°
2026-04-21 18:33 27.76964 -82.78556 789 ft 129 kts 130°
2026-04-21 18:33 27.76320 -82.77833 789 ft 131 kts 130°
2026-04-21 18:34 27.75668 -82.77110 786 ft 131 kts 130°
2026-04-21 18:34 27.74933 -82.76491 769 ft 141 kts 149°
2026-04-21 18:34 27.74052 -82.76023 785 ft 140 kts 148°
2026-04-21 18:34 27.73294 -82.75462 798 ft 121 kts 132°
2026-04-21 18:35 27.72884 -82.75017 779 ft 125 kts 131°
2026-04-21 18:35 27.71748 -82.74365 781 ft 148 kts 153°
2026-04-21 18:35 27.70710 -82.74144 787 ft 156 kts 165°
2026-04-21 18:35 27.69639 -82.74097 798 ft 148 kts 168°
2026-04-21 18:36 27.68632 -82.74020 794 ft 143 kts 168°
2026-04-21 18:36 27.67633 -82.74065 761 ft 154 kts 190°
2026-04-21 18:36 27.66623 -82.74404 797 ft 146 kts 186°
2026-04-21 18:36 27.65807 -82.74188 671 ft 129 kts 131°
2026-04-21 18:37 27.65424 -82.73285 420 ft 125 kts 98°
2026-04-21 18:37 27.65584 -82.72426 436 ft 113 kts 69°
2026-04-21 18:37 27.66191 -82.71870 441 ft 120 kts 31°
2026-04-21 18:37 27.67061 -82.71604 413 ft 138 kts 23°
2026-04-21 18:38 27.67971 -82.71383 425 ft 132 kts 23°
2026-04-21 18:38 27.68863 -82.71191 427 ft 130 kts 22°
2026-04-21 18:38 27.69580 -82.70691 284 ft 131 kts 67°
2026-04-21 18:38 27.69618 -82.69758 67 ft 115 kts 90°
2026-04-21 18:39 27.69630 -82.68884 75 ft 108 kts 89°
2026-04-21 18:39 27.69646 -82.68019 397 ft 108 kts 89°
2026-04-21 18:39 27.69661 -82.67201 770 ft 110 kts 89°
2026-04-21 18:39 27.69604 -82.66086 139 ft 165 kts 92°
2026-04-21 18:40 27.69541 -82.64816 734 ft 148 kts 93°
2026-04-21 18:40 27.69704 -82.63839 1263 ft 114 kts 69°
2026-04-21 18:40 27.69998 -82.63352 660 ft 112 kts 52°
2026-04-21 18:40 27.70959 -82.62808 416 ft 117 kts 27°
2026-04-21 18:41 27.71739 -82.62527 567 ft 123 kts 27°
2026-04-21 18:41 27.72579 -82.62193 628 ft 134 kts 27°
2026-04-21 18:41 27.73576 -82.61872 418 ft 151 kts 19°
2026-04-21 18:41 27.74525 -82.61668 690 ft 129 kts 19°
2026-04-21 18:42 27.75393 -82.61461 694 ft 140 kts 20°
2026-04-21 18:42 27.76334 -82.61260 929 ft 131 kts 19°
2026-04-21 18:42 27.77175 -82.61100 941 ft 126 kts 19°
2026-04-21 18:42 27.78056 -82.60899 976 ft 125 kts 19°
2026-04-21 18:43 27.78935 -82.60691 835 ft 151 kts 20°
2026-04-21 18:43 27.80031 -82.60229 343 ft 176 kts 26°
2026-04-21 18:43 27.81110 -82.59776 515 ft 161 kts 25°
2026-04-21 18:43 27.82212 -82.59342 438 ft 175 kts 30°
2026-04-21 18:44 27.83299 -82.58742 265 ft 169 kts
2026-04-21 18:44 27.84396 -82.59121 520 ft 169 kts 328°
2026-04-21 18:44 27.84883 -82.60213 666 ft 169 kts 251°
2026-04-21 18:44 27.84096 -82.60714 748 ft 127 kts 153°
2026-04-21 18:45 27.84105 -82.59887 796 ft 133 kts 51°
2026-04-21 18:45 27.85006 -82.60001 700 ft 159 kts 306°
2026-04-21 18:45 27.85539 -82.61240 559 ft 190 kts 300°
2026-04-21 18:45 27.86151 -82.62629 128 ft 204 kts 298°
2026-04-21 18:46 27.86734 -82.64020 391 ft 191 kts 299°
2026-04-21 18:46 27.87274 -82.65469 428 ft 209 kts 295°
2026-04-21 18:46 27.88207 -82.66562 381 ft 185 kts 321°
2026-04-21 18:46 27.89185 -82.67628 181 ft 197 kts 316°
2026-04-21 18:47 27.89893 -82.68432 214 ft 82 kts 319°
2026-04-21 18:47 27.90282 -82.68714 108 ft 52 kts 349°
2026-04-21 18:47 27.90644 -82.68781 38 ft 70 kts 349°
2026-04-21 18:47 27.90964 -82.68994 65 ft 27 kts 306°
2026-04-21 18:48 27.90991 -82.69042 24 ft 0 kts 310°
2026-04-21 18:48 27.90992 -82.69044 16 ft 0 kts 311°
2026-04-21 18:48 27.90995 -82.69047 15 ft 4 kts 308°
2026-04-21 18:48 27.91043 -82.69114 14 ft 17 kts 310°
2026-04-21 18:49 27.91137 -82.69239 16 ft 23 kts 309°
2026-04-21 18:49 27.91247 -82.69391 17 ft 18 kts 308°
2026-04-21 18:49 27.91284 -82.69452 17 ft 10 kts 303°
2026-04-21 18:49 27.91300 -82.69476 18 ft 0 kts 303°